Stations météo

réclame
Mon MeteoGroup
F16-A, Pays-Bas (6206): Température de l'air & dewpoint: 10.08.2018 03:00:00 - 16.08.2018 03:00:00 (CEST)F16-A, Pays-Bas (6206): Vitesse du vent & gusts: 10.08.2018 03:00:00 - 16.08.2018 03:00:00 (CEST)F16-A, Pays-Bas (6206): Direction du vent: 10.08.2018 03:00:00 - 16.08.2018 03:00:00 (CEST)F16-A, Pays-Bas (6206): reduced air pressure: 10.08.2018 03:00:00 - 16.08.2018 03:00:00 (CEST)F16-A, Pays-Bas (6206): visibility: 10.08.2018 03:00:00 - 16.08.2018 03:00:00 (CEST)
Date & Time tt [°C] td [°C] ff [km/h] ff [knt] fx [km/h] fx [knt] dd ppp [hPa] vv [km]
16.08.2018 03:00:00 18,5 17,1 41 22 43 23 SSW 1012,3 10
16.08.2018 02:00:00 18,5 17,1 44 24 47 25 SSW 1013,0 10
16.08.2018 01:00:00 18,5 17,0 48 26 50 27 - 1013,4 10
16.08.2018 00:00:00 18,7 16,9 52 28 54 29 SSW 1013,5 10
15.08.2018 23:00:00 18,6 16,8 54 29 54 29 SSW 1013,9 10
15.08.2018 22:00:00 18,3 16,7 54 29 50 27 SSW 1014,2 10
15.08.2018 21:00:00 18,2 16,6 48 26 50 27 SSW 1014,2 10
15.08.2018 20:00:00 18,2 16,5 46 25 47 25 SSW 1014,3 10
15.08.2018 19:00:00 18,1 15,8 39 21 43 23 SSW 1014,8 10
15.08.2018 18:00:00 18,1 15,7 34 18 40 21 - 1015,3 10
15.08.2018 17:00:00 18,2 15,5 34 18 36 19 SSW 1015,4 10
15.08.2018 16:00:00 18,1 16,4 31 17 32 18 SSW 1015,6 10
15.08.2018 15:00:00 18,2 16,5 28 15 29 16 SSW 1015,7 10
15.08.2018 14:00:00 18,2 16,7 28 15 29 16 SSW 1015,8 10
15.08.2018 13:00:00 18,2 17,1 26 14 25 14 SSW 1015,7 10
15.08.2018 12:00:00 18,2 17,2 28 15 29 16 SSW 1015,8 10
15.08.2018 11:00:00 18,3 16,7 28 15 25 14 SSW 1015,6 10
15.08.2018 10:00:00 18,3 16,3 26 14 25 14 SW 1015,2 10
15.08.2018 09:00:00 18,2 16,0 22 12 22 12 SW 1015,0 10
15.08.2018 08:00:00 18,2 15,9 24 13 25 14 WSW 1015,1 10
15.08.2018 07:00:00 18,2 15,8 22 12 25 14 WSW 1014,7 10
15.08.2018 06:00:00 18,2 15,8 22 12 22 12 SW 1014,6 10
15.08.2018 05:00:00 18,5 15,2 22 12 25 14 WSW 1014,6 10
15.08.2018 04:00:00 18,3 16,2 22 12 25 14 WSW 1014,9 10
15.08.2018 03:00:00 18,3 16,2 26 14 25 14 WSW 1014,8 10
15.08.2018 02:00:00 18,3 15,9 28 15 25 14 SW 1014,9 10
15.08.2018 01:00:00 18,2 15,8 29 16 32 18 WSW 1014,7 10
15.08.2018 00:00:00 18,1 16,1 26 14 29 16 SW 1014,6 10
14.08.2018 23:00:00 17,8 14,9 22 12 32 18 SW 1015,1 10
14.08.2018 22:00:00 17,6 14,7 21 11 22 12 SW 1015,1 10
14.08.2018 21:00:00 17,4 14,2 24 13 22 12 WSW 1014,7 10
14.08.2018 20:00:00 17,2 15,3 21 11 22 12 WSW 1014,2 10
14.08.2018 19:00:00 17,2 15,7 21 11 22 12 SW 1014,1 10
14.08.2018 18:00:00 17,7 15,2 21 11 22 12 WSW 1014,4 10
14.08.2018 17:00:00 18,3 14,7 15 8 18 10 W 1014,2 10
14.08.2018 16:00:00 18,3 14,3 22 12 22 12 W 1014,2 10
14.08.2018 15:00:00 18,4 13,8 21 11 29 16 WNW 1013,9 10
14.08.2018 14:00:00 18,0 13,1 34 18 32 18 WNW 1013,3 10
14.08.2018 13:00:00 18,0 13,6 35 19 36 19 WNW 1012,7 10
14.08.2018 12:00:00 17,8 13,3 31 17 36 19 WNW 1012,2 10
14.08.2018 11:00:00 17,8 13,1 34 18 36 19 NW 1011,5 10
14.08.2018 10:00:00 17,7 13,1 37 20 40 21 NW 1010,7 10
14.08.2018 09:00:00 17,5 13,9 42 23 43 23 NW 1010,0 10
14.08.2018 08:00:00 17,7 13,9 44 24 47 25 NW 1009,3 10
14.08.2018 07:00:00 17,6 14,4 46 25 47 25 NW 1008,6 10
14.08.2018 06:00:00 17,6 14,4 42 23 47 25 NW 1007,8 10
14.08.2018 05:00:00 17,0 15,2 48 26 47 25 NW 1007,0 10
14.08.2018 04:00:00 17,7 14,8 42 23 47 25 NW 1006,6 10
14.08.2018 03:00:00 17,8 15,4 41 22 43 23 NW 1006,3 10
14.08.2018 02:00:00 18,0 16,2 34 18 36 19 NW 1006,0 10
14.08.2018 01:00:00 17,8 16,4 39 21 40 21 NW 1005,6 10
14.08.2018 00:00:00 18,1 16,8 29 16 32 18 WNW 1005,2 10
13.08.2018 23:00:00 18,0 17,1 22 12 22 12 W 1005,0 10
13.08.2018 22:00:00 17,6 16,8 22 12 22 12 W 1005,1 10
13.08.2018 21:00:00 17,5 16,8 21 11 22 12 W 1004,7 10
13.08.2018 20:00:00 17,3 16,8 21 11 25 14 WSW 1004,4 10
13.08.2018 19:00:00 16,6 15,9 21 11 22 12 SW 1004,5 10
13.08.2018 18:00:00 16,8 15,8 15 8 14 8 WSW 1004,7 10
13.08.2018 17:00:00 17,1 16,0 11 6 11 6 WSW 1004,6 10
13.08.2018 16:00:00 17,1 16,0 11 6 11 6 WSW 1004,7 10
13.08.2018 15:00:00 17,1 15,6 5 3 11 6 SW 1004,9 10
13.08.2018 14:00:00 17,6 15,5 9 5 18 10 NW 1004,9 10
13.08.2018 13:00:00 17,1 15,9 9 5 22 12 - 1005,0 10
13.08.2018 12:00:00 16,8 15,7 15 8 22 12 - 1005,1 10
13.08.2018 11:00:00 17,3 15,3 11 6 11 6 WSW 1005,2 10
13.08.2018 10:00:00 17,5 14,8 11 6 11 6 WSW 1005,0 10
13.08.2018 09:00:00 17,6 15,1 15 8 18 10 WSW 1005,1 10
13.08.2018 08:00:00 17,8 15,6 18 10 22 12 SW 1005,0 10
13.08.2018 07:00:00 17,9 16,4 24 13 25 14 SSW 1005,0 10
13.08.2018 06:00:00 18,3 16,2 22 12 22 12 SSW 1005,1 10
13.08.2018 05:00:00 18,3 16,4 16 9 18 10 S 1005,6 10
13.08.2018 04:00:00 18,0 16,9 9 5 14 8 SE 1006,1 10
13.08.2018 03:00:00 17,8 16,3 13 7 14 8 SE 1006,6 10
13.08.2018 02:00:00 17,6 15,9 5 3 11 6 E 1007,1 10
13.08.2018 01:00:00 17,4 15,6 4 2 18 10 - 1007,5 10
13.08.2018 00:00:00 17,3 16,2 4 2 4 2 N 1007,8 10
12.08.2018 23:00:00 17,3 15,7 4 2 7 4 SW 1008,3 10
12.08.2018 22:00:00 17,4 15,9 8 4 11 6 WSW 1008,7 10
12.08.2018 21:00:00 17,7 15,9 13 7 25 14 W 1008,5 10
12.08.2018 20:00:00 18,3 16,4 26 14 29 16 SW 1008,5 10
12.08.2018 19:00:00 18,3 16,4 31 17 32 18 - 1009,1 10
12.08.2018 18:00:00 18,5 16,2 35 19 36 19 SSW 1009,3 10
12.08.2018 17:00:00 18,4 16,3 34 18 40 21 - 1009,6 10
12.08.2018 16:00:00 18,3 16,7 35 19 36 19 - 1010,0 10
12.08.2018 15:00:00 18,5 16,3 44 24 47 25 SSW 1010,1 10
12.08.2018 14:00:00 18,5 16,1 46 25 47 25 SSW 1010,3 10
12.08.2018 13:00:00 18,4 16,1 41 22 43 23 SSW 1010,6 10
12.08.2018 12:00:00 17,7 15,7 41 22 58 31 S 1011,1 10
12.08.2018 11:00:00 17,1 15,9 54 29 61 33 SSW 1011,8 10
12.08.2018 10:00:00 17,6 16,2 44 24 54 29 S 1012,1 7
12.08.2018 09:00:00 16,8 16,3 41 22 47 25 S 1012,4 9
12.08.2018 08:00:00 16,4 15,8 42 23 43 23 S 1013,0 7
12.08.2018 07:00:00 16,8 14,3 48 26 47 25 S 1013,6 6
12.08.2018 06:00:00 16,2 13,8 48 26 50 27 S 1014,2 10
12.08.2018 05:00:00 17,7 12,1 42 23 47 25 S 1014,9 10
12.08.2018 04:00:00 17,6 11,9 39 21 40 21 S 1015,9 10
12.08.2018 03:00:00 17,4 11,3 41 22 40 21 S 1016,6 10
12.08.2018 02:00:00 17,1 12,0 34 18 36 19 SSW 1017,4 10
12.08.2018 01:00:00 17,0 11,5 31 17 32 18 SSW 1018,1 10
12.08.2018 00:00:00 16,9 11,7 26 14 29 16 SSW 1018,7 10
11.08.2018 23:00:00 16,4 10,2 26 14 25 14 SSW 1019,3 10
11.08.2018 22:00:00 16,3 8,9 18 10 25 14 WSW 1019,6 10
11.08.2018 21:00:00 15,9 8,9 22 12 25 14 WSW 1019,7 10
11.08.2018 20:00:00 15,7 10,7 18 10 22 12 WSW 1019,9 10
11.08.2018 19:00:00 16,2 11,5 18 10 25 14 WSW 1020,3 10
11.08.2018 18:00:00 16,4 11,5 22 12 22 12 W 1020,3 10
11.08.2018 17:00:00 16,6 11,3 22 12 25 14 W 1020,3 10
11.08.2018 16:00:00 16,6 11,3 28 15 29 16 W 1020,4 10
11.08.2018 15:00:00 16,6 11,8 29 16 32 18 W 1020,0 10
11.08.2018 14:00:00 16,8 12,2 22 12 29 16 W 1019,8 10
11.08.2018 13:00:00 17,4 10,8 22 12 29 16 W 1019,5 10
11.08.2018 12:00:00 17,2 10,5 28 15 32 18 WNW 1019,3 10
11.08.2018 11:00:00 17,3 10,4 28 15 32 18 WNW 1018,9 10
11.08.2018 10:00:00 17,6 11,0 34 18 36 19 WNW 1018,3 10
11.08.2018 09:00:00 16,2 11,2 26 14 32 18 W 1017,8 10
11.08.2018 08:00:00 16,5 10,6 24 13 36 19 W 1017,2 10
11.08.2018 07:00:00 16,0 10,4 28 15 36 19 W 1016,6 10
11.08.2018 06:00:00 15,1 10,4 28 15 29 16 W 1016,4 10
11.08.2018 05:00:00 14,9 9,8 24 13 25 14 W 1016,3 10
11.08.2018 04:00:00 14,2 8,8 22 12 36 19 W 1015,9 10
11.08.2018 03:00:00 14,5 8,5 41 22 43 23 WNW 1015,8 10
11.08.2018 02:00:00 14,4 9,8 31 17 40 21 WNW 1015,6 10
11.08.2018 01:00:00 15,0 11,1 26 14 36 19 WNW 1015,3 10
11.08.2018 00:00:00 14,9 10,4 24 13 25 14 W 1015,0 10
10.08.2018 23:00:00 14,2 10,9 18 10 29 16 W 1014,9 10
10.08.2018 22:00:00 14,7 10,6 11 6 18 10 SW 1014,8 10
10.08.2018 21:00:00 14,4 9,6 15 8 18 10 SSW 1014,8 10
10.08.2018 20:00:00 14,1 8,7 15 8 25 14 SSE 1015,1 10
10.08.2018 19:00:00 14,2 10,1 28 15 50 27 SSW 1016,4 7
10.08.2018 18:00:00 15,5 12,4 42 23 47 25 - 1016,4 10
10.08.2018 17:00:00 16,8 10,8 31 17 36 19 SSW 1016,7 10
10.08.2018 16:00:00 16,7 10,5 35 19 36 19 SW 1016,7 10
10.08.2018 15:00:00 16,6 9,8 37 20 36 19 SW 1016,7 10
10.08.2018 14:00:00 16,2 11,1 16 9 25 14 SW 1016,6 10
10.08.2018 13:00:00 15,5 11,5 28 15 29 16 WSW 1016,4 10
10.08.2018 12:00:00 16,6 9,3 24 13 29 16 SW 1015,9 10
10.08.2018 11:00:00 16,7 8,4 26 14 32 18 WSW 1015,5 10
10.08.2018 10:00:00 16,7 9,5 31 17 32 18 WSW 1015,3 10
10.08.2018 09:00:00 16,8 8,3 39 21 40 21 WSW 1014,5 10
10.08.2018 08:00:00 16,9 8,3 39 21 43 23 WSW 1014,1 10
10.08.2018 07:00:00 17,0 9,0 42 23 43 23 WSW 1013,5 10
10.08.2018 06:00:00 15,5 11,1 35 19 40 21 WSW 1013,2 10
10.08.2018 05:00:00 15,3 8,7 46 25 47 25 W 1012,8 10
10.08.2018 04:00:00 15,1 10,5 37 20 61 33 W 1012,8 10
10.08.2018 03:00:00 15,4 9,5 65 35 68 37 WNW 1011,5 10

tt = Température de l'air
td = dewpoint
ff = Vitesse du vent
fx = gusts
dd = Direction du vent
ppp = reduced air pressure
vv = visibility

stations d'obs. à proximité